Theta_e
307 305 303 303 302 302 303 303 303 305 305 306 305 306 307 307 306 315 315 310 312 309 314 315 313 309 314 315 317 320 323 324 323 324 325 325 325 324 323 322 322 324 329 331 341
312 311 308 305 303 303 303 303 303 305 306 305 306 306 308 306 309 315 310 307 306 306 317 312 314 313 313 313 314 318 322 322 323 324 325 326 326 324 323 322 322 322 324 328 332
313 312 310 308 305 303 303 303 304 306 306 306 306 307 308 307 315 315 309 308 308 309 317 312 311 312 315 314 315 315 318 320 321 321 321 323 325 323 323 323 322 323 322 322 324
313 313 311 307 305 303 303 303 304 306 306 306 307 306 308 309 318 315 310 310 310 311 314 315 315 314 316 316 315 316 316 315 316 317 318 322 322 324 323 323 322 322 322 322 322
313 313 313 309 306 303 303 304 305 306 306 306 307 307 307 316 314 314 310 311 313 315 313 313 314 315 316 316 314 316 316 315 316 315 316 317 321 323 323 322 321 321 321 322 322
313 313 312 309 306 304 303 304 306 305 305 306 307 307 310 316 313 313 312 313 313 313 314 314 314 314 314 315 315 314 315 315 315 315 316 317 318 320 322 322 322 321 320 321 322
313 313 312 309 305 304 304 305 305 305 307 308 308 307 313 313 312 311 311 312 313 313 313 314 314 314 315 316 315 315 315 314 315 314 316 316 317 318 318 321 322 323 323 321 321
311 312 312 309 305 304 305 305 306 308 308 308 307 311 314 312 313 312 312 312 313 313 313 313 314 314 314 314 315 316 316 316 316 315 314 315 317 318 317 318 319 322 323 323 323
310 311 311 308 305 306 305 308 308 309 309 308 312 315 315 313 311 312 312 312 312 313 314 313 313 314 314 316 316 316 316 316 315 316 316 316 316 317 316 318 318 319 323 324 324
308 311 311 307 305 306 308 309 310 312 311 315 315 315 315 313 312 312 311 311 313 313 314 315 315 316 317 316 317 314 314 315 315 315 315 315 316 317 317 318 318 319 319 321 324
307 311 310 307 306 306 308 314 314 317 315 311 311 312 312 312 312 312 312 312 313 313 316 315 318 318 316 317 316 316 315 314 315 315 315 315 316 317 318 318 319 318 319 320 321
310 310 308 307 307 307 311 313 310 309 312 312 312 312 311 312 312 312 312 313 314 315 316 316 316 317 316 316 317 316 316 316 316 316 316 315 314 316 319 319 318 320 319 320 321
310 310 307 308 307 312 312 311 310 311 313 313 312 312 312 312 312 312 313 313 314 315 315 316 316 316 316 317 318 316 317 317 317 317 316 315 314 316 317 318 318 319 320 320 321
309 309 307 308 313 312 313 311 309 311 317 314 313 313 312 312 313 312 312 313 314 315 315 316 316 316 316 316 316 318 316 316 317 317 318 315 315 315 318 320 319 319 319 320 322
309 307 307 308 309 312 310 309 310 313 321 312 312 311 311 312 312 315 313 313 315 315 315 317 317 317 318 316 316 317 317 317 318 317 315 315 314 315 316 319 320 321 320 320 321
309 306 307 311 313 308 307 309 313 320 316 311 312 312 312 312 314 314 314 314 314 315 315 316 315 316 317 316 316 316 316 317 316 315 319 316 313 315 316 317 319 320 319 320 321
309 306 307 308 307 306 308 313 319 316 312 312 312 312 313 315 316 315 315 315 316 319 319 318 318 317 316 317 315 317 317 321 321 320 320 315 314 314 316 318 319 320 319 320 320
308 306 312 308 306 308 311 317 316 312 312 312 312 313 315 316 315 315 315 315 316 316 318 321 320 316 315 316 318 317 315 319 319 319 320 315 315 315 315 318 319 321 321 320 320
308 312 312 307 307 309 314 315 313 313 311 311 312 315 315 315 314 315 315 316 316 317 320 319 320 315 315 315 316 318 320 317 319 318 319 316 316 316 315 317 319 322 322 321 322
308 312 313 306 306 312 314 309 312 311 311 312 313 314 315 314 314 314 315 315 315 316 314 315 318 314 314 316 316 317 317 320 319 320 317 315 314 314 316 317 319 323 323 323 322
311 312 310 306 309 311 313 312 311 309 310 311 313 314 315 314 314 313 314 315 315 316 314 314 316 314 313 317 318 318 321 320 319 319 319 318 321 319 318 317 319 322 321 322 323
311 314 309 308 312 311 311 310 309 311 311 312 312 314 314 313 313 313 314 313 313 313 314 314 315 316 315 314 315 317 318 319 321 320 318 319 318 318 322 318 318 319 319 321 323
310 310 310 309 313 311 311 310 310 311 311 311 312 313 313 313 315 313 313 312 311 312 310 311 315 317 317 319 316 317 318 318 319 319 322 323 322 319 321 321 318 319 321 322 323
310 313 310 309 309 309 311 312 312 310 310 310 312 312 313 314 312 313 313 311 310 311 312 311 311 314 317 317 317 320 318 317 319 323 320 319 318 318 320 322 323 320 321 323 323
310 311 309 311 311 310 311 310 311 311 310 310 313 313 313 314 312 313 312 312 312 312 310 310 315 314 315 316 315 316 317 318 319 319 322 320 319 320 320 320 321 323 324 324 324
309 309 307 309 309 310 308 310 310 310 311 312 313 313 312 313 313 314 313 314 314 312 311 309 314 315 317 316 316 318 317 317 317 318 318 319 319 318 319 317 320 323 327 324 338
308 307 306 309 310 310 309 308 309 309 310 311 311 313 312 313 312 312 312 313 314 310 308 308 313 315 319 319 319 322 319 318 317 317 319 320 320 319 319 321 324 325 330 337 332
Wind_Speed
24 23 23 23 23 22 19 15 12 10 10 12 14 15 15 16 6 7 3 4 2 3 6 3 4 9 10 18 22 19 17 22 29 28 21 27 25 20 25 19 29 28 21 14 9
26 26 25 25 25 23 17 14 11 9 10 11 12 12 13 14 6 6 8 0 3 3 5 3 6 6 15 16 21 20 18 29 24 23 22 29 27 21 18 23 25 30 29 26 11
28 28 27 26 26 23 17 14 10 9 10 11 12 10 11 9 10 6 5 2 3 2 3 4 6 10 15 17 21 25 24 25 27 26 30 29 24 25 20 23 27 24 32 32 28
30 30 30 29 27 24 17 14 10 9 10 11 13 10 9 6 5 7 4 5 5 4 6 6 7 10 13 14 18 22 29 29 28 32 31 25 28 25 23 26 19 25 28 27 27
31 31 31 31 28 23 17 13 11 11 12 14 14 10 8 10 17 11 5 4 5 5 7 9 11 13 15 13 15 19 21 29 32 29 31 34 26 28 31 29 24 19 18 24 29
32 33 32 32 28 22 15 13 13 13 15 18 15 11 8 17 2 5 3 5 6 8 11 12 13 13 15 16 17 21 23 23 23 29 33 24 26 31 33 28 24 29 24 20 26
33 33 32 32 27 19 12 13 13 14 18 16 16 10 10 18 6 8 6 6 10 11 14 13 13 16 15 16 16 18 19 21 22 24 25 31 30 35 34 33 32 28 26 29 26
33 33 32 32 25 14 12 10 12 17 15 14 7 5 13 11 13 13 10 11 11 12 14 14 14 17 20 20 22 19 20 20 21 24 27 27 35 32 37 34 36 34 31 35 32
33 33 32 30 21 11 9 10 14 14 12 5 3 7 14 5 11 13 11 12 14 16 12 12 13 18 17 16 16 17 18 24 22 20 21 29 36 26 37 37 38 39 35 31 34
34 32 31 26 14 9 8 10 11 9 4 3 6 8 8 7 2 9 13 16 19 15 15 15 18 14 15 13 16 18 18 19 17 10 19 28 32 21 32 36 37 32 40 38 36
34 32 30 21 10 5 9 10 7 5 8 19 19 20 23 16 14 14 12 16 17 15 16 18 12 15 19 16 19 21 24 24 25 20 17 25 24 24 24 35 25 39 27 35 39
35 34 25 15 7 4 9 9 10 11 17 18 9 8 8 7 11 13 14 22 17 15 16 13 17 20 21 17 23 23 24 25 24 23 21 21 26 29 23 28 35 29 32 30 34
37 34 20 9 4 8 7 6 11 13 10 2 3 5 2 4 13 21 10 10 14 19 18 17 19 19 13 17 23 19 20 23 24 26 23 20 24 25 27 27 34 32 24 28 28
38 31 14 5 4 9 3 13 14 10 6 6 5 4 8 13 14 8 12 16 17 18 16 16 21 19 20 22 18 21 22 22 24 21 16 21 19 24 26 25 25 29 32 31 30
38 26 9 8 6 9 13 15 11 4 4 3 4 5 12 16 15 7 5 10 14 16 16 21 22 12 16 14 13 20 20 21 17 22 20 25 15 19 26 29 26 25 34 35 34
37 19 9 8 7 13 16 14 4 7 4 7 5 13 15 17 10 13 9 7 16 18 21 24 28 19 20 19 12 15 16 20 20 15 17 24 21 19 23 31 31 29 41 41 39
34 11 9 11 14 17 13 8 7 5 12 8 19 17 18 9 14 11 10 13 11 7 13 13 18 21 20 15 15 17 14 7 7 10 16 19 22 21 25 28 29 29 37 40 42
30 7 9 10 17 11 8 11 10 13 10 17 14 20 10 10 14 16 13 14 10 9 12 9 6 4 3 13 10 16 16 10 11 9 11 17 19 20 28 27 22 22 31 38 40
23 6 4 15 14 8 13 8 7 11 14 13 17 11 11 16 15 13 18 10 6 7 5 7 6 6 12 12 12 11 18 19 22 22 16 15 12 25 21 28 23 21 20 36 36
21 7 5 18 10 7 7 3 6 7 12 12 15 9 17 18 15 17 12 6 3 3 3 2 9 10 11 18 17 18 4 6 10 9 17 15 15 13 19 27 14 17 12 17 38
14 9 6 17 10 13 4 7 11 12 11 8 13 17 15 15 16 18 9 13 10 1 5 2 5 7 7 9 17 8 7 10 11 14 12 7 8 14 12 26 23 17 19 20 34
10 5 12 17 10 8 8 8 10 10 13 10 8 13 12 14 14 14 11 7 9 5 7 5 5 12 23 23 21 20 16 15 9 12 12 14 6 17 22 19 23 21 26 27 26
15 10 6 14 5 8 9 11 6 12 12 9 11 14 16 14 7 9 19 17 19 3 3 1 5 7 10 9 15 12 14 13 19 17 18 8 6 9 19 9 25 22 26 29 35
12 5 9 9 4 10 12 9 13 11 11 9 14 17 12 10 14 12 24 8 9 21 23 11 5 13 14 20 2 4 11 9 15 10 19 17 5 17 15 16 14 23 26 22 34
9 6 4 7 12 13 13 12 16 15 8 18 9 14 18 12 19 14 12 22 23 21 2 2 5 13 19 24 23 21 19 19 16 20 20 16 4 9 15 13 19 23 20 26 28
11 7 11 20 11 13 5 11 14 17 17 14 17 21 20 17 16 21 21 22 5 3 1 2 5 15 21 20 19 19 19 19 18 16 16 21 14 9 15 18 21 20 21 31 33
11 7 10 13 11 9 8 13 17 18 10 15 20 21 20 22 35 36 33 26 13 5 2 3 3 6 10 7 1 6 15 18 18 18 14 15 2 5 15 15 18 29 25 34 31
Wind_Direction
2 358 355 349 341 335 330 321 318 318 323 325 329 329 331 331 325 336 337 233 183 37 57 311 275 244 239 235 234 234 249 244 244 250 250 260 261 233 237 248 247 240 233 222 136
1 357 354 350 343 336 328 317 309 304 320 326 331 325 329 327 317 249 255 347 81 85 22 287 262 250 241 238 230 232 242 246 258 258 257 259 258 248 234 227 236 245 233 219 177
359 357 354 349 343 336 324 313 301 303 316 324 327 316 326 324 295 179 268 28 26 337 337 302 275 261 260 246 233 238 245 261 263 263 274 280 274 242 235 250 226 233 229 233 234
355 354 352 348 342 335 322 313 301 300 309 319 324 310 318 298 305 177 317 342 340 344 282 278 265 256 253 259 240 253 253 258 265 269 279 278 272 263 255 246 237 237 236 230 215
353 352 350 345 341 333 321 312 302 304 309 317 318 306 305 257 260 216 307 300 281 275 271 276 278 286 271 270 270 254 257 262 261 259 265 269 264 259 259 256 248 252 231 234 231
353 351 348 344 342 333 320 314 306 307 309 308 304 296 277 262 196 199 177 231 262 262 270 273 277 287 295 272 272 278 280 267 265 260 251 253 258 261 256 257 251 244 249 234 234
352 350 347 344 341 333 322 318 311 309 307 304 299 267 264 248 254 228 224 254 275 267 272 279 280 271 270 273 267 268 267 263 256 258 259 253 252 247 249 251 245 243 242 242 235
348 348 346 342 340 336 332 334 322 314 313 312 293 230 264 281 231 229 258 277 273 272 267 273 270 270 266 272 270 260 262 264 254 237 242 238 250 244 245 246 245 243 236 236 238
348 346 345 341 338 338 347 340 324 323 331 330 334 231 272 241 231 238 247 272 291 279 264 267 264 259 260 245 256 242 255 254 254 243 246 226 247 247 249 239 233 236 233 238 232
348 345 344 341 337 338 347 337 322 321 15 327 277 251 250 255 328 257 259 269 293 284 233 236 243 243 237 240 257 271 248 264 266 252 253 242 248 241 244 235 252 232 225 232 236
347 344 342 339 336 337 354 326 321 229 225 295 291 274 290 276 274 273 265 283 287 245 255 258 242 245 256 263 269 275 280 283 287 286 275 280 265 242 246 245 243 228 229 226 225
348 345 345 341 338 353 9 338 355 313 306 293 276 280 291 261 279 281 274 279 266 260 267 253 257 247 268 300 292 275 269 267 274 276 266 261 269 262 243 230 237 235 224 228 222
348 347 349 352 9 7 328 340 334 322 286 287 264 276 325 272 278 299 292 271 276 275 273 275 273 288 258 258 272 266 276 280 279 278 272 265 261 265 249 242 226 233 228 232 230
349 349 2 25 15 338 332 323 325 311 272 119 169 164 254 266 288 301 264 288 278 271 285 277 272 263 256 265 265 264 269 267 262 272 260 248 256 235 243 232 233 229 226 231 232
350 352 23 10 336 346 321 320 317 269 287 30 347 298 278 293 304 279 264 272 275 278 281 264 279 268 274 262 275 272 282 268 256 256 266 252 256 263 226 231 225 218 228 228 229
348 351 29 357 328 327 321 310 300 236 22 324 298 325 314 314 333 312 274 255 282 279 269 267 268 262 258 260 253 264 266 257 249 261 257 249 250 242 248 224 218 220 219 220 224
347 348 23 17 333 323 318 291 247 339 347 359 333 328 308 327 320 337 303 292 273 285 280 275 253 238 246 260 256 240 246 245 239 232 251 243 239 249 251 220 217 221 207 208 216
350 348 339 353 330 319 317 268 286 8 351 332 327 307 298 1 340 331 322 298 295 264 289 288 296 246 201 239 250 237 237 235 267 252 270 252 227 238 245 251 215 225 206 201 207
349 337 344 330 332 325 288 291 354 346 340 327 312 305 331 349 336 323 322 307 345 349 300 317 249 303 274 263 251 246 243 257 270 288 275 254 213 254 235 240 221 210 205 194 194
352 324 302 345 338 315 300 331 318 335 325 318 304 311 324 338 332 340 306 313 340 81 91 324 289 276 271 288 247 245 251 260 244 268 268 266 237 233 224 222 221 176 196 208 184
360 306 335 343 313 311 339 334 324 339 322 320 313 316 316 319 325 315 268 318 11 192 282 207 251 281 287 241 247 221 247 232 268 257 271 271 289 343 262 210 199 196 203 217 187
352 305 349 344 299 346 359 340 322 309 320 293 290 287 310 324 315 308 276 300 348 294 285 264 276 271 270 264 244 258 246 252 227 240 264 295 273 276 293 218 201 204 191 204 204
336 306 326 5 19 347 342 306 280 294 310 297 295 304 317 319 313 281 294 300 320 326 255 196 245 290 290 231 230 235 252 255 240 266 255 263 307 310 308 268 200 204 190 188 199
336 329 346 313 119 346 344 319 322 327 317 296 298 295 317 305 300 287 295 315 314 285 273 227 221 243 265 285 267 274 276 236 246 258 258 255 124 281 301 347 330 207 182 190 194
359 7 3 307 335 330 306 304 319 331 322 304 281 302 331 323 311 284 296 301 304 293 116 259 263 252 263 260 268 268 259 251 243 252 253 263 108 285 293 319 307 309 238 176 190
348 347 325 296 303 308 282 337 323 328 322 304 313 316 320 303 288 299 303 299 267 268 205 228 272 286 283 265 242 250 249 252 247 252 252 261 240 275 295 294 295 292 271 174 112
343 323 297 288 310 310 353 324 312 312 314 310 316 310 310 302 311 298 286 270 237 192 225 247 275 302 279 354 221 238 249 236 243 241 252 237 292 258 296 298 296 283 254 124 125